FALCON 9 DEB (52506 NORAD) Tracking and Keplerian Element Data
This shows tracking and keplerian element data for the satellite.
Feedback or suggestion? Click here.
Element | Value |
Catalog | 52506 |
Name | FALCON 9 DEB |
Epoch Orbit | 650 |
Epoch Day | 166.99352255 |
Epoch Year | 2022 |
RAAN | 57.9336 |
Inclination | 53.1935 |
Eccentricity | 0.0007034 |
Argument of Perigee | 264.7632 |
Mean Anonmoly | 95.2609 |
Mean Motion | 16.27393269 |
Decay Rate | 0.02926194 |
L1 | 1 52506U 22049BH 22166.99352255 .02926194 11997-4 79130-3 0 9999 |
L2 | 2 52506 53.1935 57.9336 0007034 264.7632 95.2609 16.27393269 6503 |
Live tracking and technical data element details for FALCON 9 DEB (NORAD 52506). FALCON 9 DEB can be tracked NOW for your location showing map with azimuth and elevation plus other details from your city location.
Track the satellite on the map from your city or location and see movement details for azimuth, elevation, latitude, longitude, range, height, and movement on the map or in text.
IsCatalogInMostPopularTable: catalog: 52506, numindb: 1
Update: records affected: 1
GetName: 52506 FALCON 9 DEB
Hit Count: updated at: Mon, 27 Jun 2022 04:45:17 GMT